GPS BIIF-5 (PRN 30)

Last updated on Thu Jul 03 2025 00:03:14 GMT+0000 (Coordinated Universal Time)

1 39533U 14008A 25183.18116811 .00000074 00000+0 00000+0 0 9991 2 39533 53.6184 163.5915 0078800 226.1356 133.1968 2.00564669 82661
UTC large
Height (km)
Speed (km/s)
/
Latitude / Longitude
Inclination (degrees)
Orbital Period (minutes)
Azimuth
Elevation
Range (km)
Doppler Factor

Next 0 passes for location: London (51.5072 / 0.1276)

Sorry there are no passes over London.